EDT,Max TemperatureF,Mean TemperatureF,Min TemperatureF,Max Dew PointF,MeanDew PointF,Min DewpointF,Max Humidity, Mean Humidity, Min Humidity, Max Sea Level PressureIn, Mean Sea Level PressureIn, Min Sea Level PressureIn, Max VisibilityMiles, Mean VisibilityMiles, Min VisibilityMiles, Max Wind SpeedMPH, Mean Wind SpeedMPH, Max Gust SpeedMPH,PrecipitationIn, CloudCover, Events, WindDirDegrees
2012-10-1,66,58,49,51,47,43,86,71,56,29.89,29.81,29.73,10,10,5,15,7,20,0.21,3,Rain,39
2012-10-2,61,58,55,57,54,51,90,87,84,29.88,29.78,29.70,10,6,1,13,7,18,0.05,8,Rain,26
2012-10-3,74,66,58,56,54,50,93,69,44,30.08,29.98,29.88,10,8,2,14,8,20,0.02,6,Rain,189
2012-10-4,80,66,52,58,54,48,89,66,42,30.17,30.12,30.09,10,10,10,18,7,26,0.00,2,,208
2012-10-5,62,52,42,51,43,38,89,78,67,30.20,30.15,30.11,10,9,2,14,6,18,0.78,7,Rain-Thunderstorm,341
2012-10-6,55,46,37,38,34,32,86,66,46,30.21,30.18,30.14,10,10,10,14,6,21,0.00,0,,299
2012-10-7,54,44,33,33,31,28,89,64,38,30.23,30.20,30.18,10,10,10,13,5,17,0.00,5,,309
2012-10-8,58,44,29,36,30,25,92,63,33,30.27,30.19,30.13,10,9,5,13,3,16,0.00,0,,200
2012-10-9,65,50,35,42,37,31,89,65,40,30.14,30.05,29.94,10,10,10,20,8,28,0.00,0,,192
2012-10-10,56,45,33,43,35,24,86,58,30,30.26,30.12,29.93,10,10,5,20,8,29,T,4,Rain,300
2012-10-11,63,47,30,40,32,27,89,62,34,30.30,30.25,30.18,10,10,10,16,4,22,0.00,0,,189
2012-10-12,63,51,38,43,40,35,85,64,43,30.38,30.30,30.19,10,10,10,16,6,21,0.00,1,,57
2012-10-13,73,61,48,63,50,38,78,70,61,30.27,30.13,29.94,10,10,8,18,9,24,0.00,5,,166
2012-10-14,75,65,55,63,59,48,78,64,49,29.88,29.76,29.64,10,9,1,31,18,44,0.14,7,Rain,216
2012-10-15,65,53,41,47,41,35,83,59,34,29.99,29.93,29.86,10,10,10,17,6,25,0.00,1,,290
2012-10-16,71,54,37,51,43,35,92,67,41,29.99,29.87,29.71,10,10,8,20,8,25,0.00,0,,156
2012-10-17,72,65,57,57,51,47,72,60,47,29.73,29.58,29.40,10,9,2,25,14,33,0.66,5,Rain-Thunderstorm,181
2012-10-18,63,56,48,49,37,29,100,64,27,29.64,29.56,29.46,10,9,5,29,12,37,0.15,4,Rain,228
2012-10-19,56,52,48,46,44,36,80,66,51,29.73,29.60,29.53,10,10,5,16,8,23,0.18,8,Rain,230
2012-10-20,57,49,40,46,44,38,93,76,59,29.99,29.84,29.73,10,9,2,13,6,16,0.03,7,Rain,253
2012-10-21,73,56,38,50,43,36,92,67,41,30.07,30.02,29.99,10,8,0,16,6,18,0.00,1,Fog,144
2012-10-22,74,69,63,63,55,50,66,60,53,30.08,30.01,29.93,10,10,3,25,9,31,0.21,5,Rain-Thunderstorm,171
2012-10-23,71,67,62,60,56,51,84,70,55,30.04,30.00,29.96,10,10,2,15,6,20,0.14,7,Rain-Thunderstorm,180
2012-10-24,79,69,59,62,56,52,75,65,54,30.05,30.00,29.96,10,10,10,18,9,23,0.00,0,,172
2012-10-25,79,65,50,59,55,46,78,63,48,30.00,29.93,29.85,10,10,10,26,13,36,T,3,,187
2012-10-26,51,46,40,45,39,32,89,73,56,30.27,30.17,30.03,10,9,2,23,10,29,0.32,6,Rain,341
2012-10-27,55,45,35,34,32,30,82,63,43,30.24,30.21,30.16,10,10,10,20,10,25,0.00,0,,353
2012-10-28,53,45,37,34,30,26,85,62,38,30.21,30.18,30.15,10,10,10,21,9,32,0.00,1,,355
2012-10-29,57,46,35,34,30,28,76,56,35,30.22,30.14,29.99,10,10,10,25,13,36,0.00,1,,340
2012-10-30,48,44,39,30,28,26,64,55,45,29.97,29.81,29.76,10,10,10,24,16,33,0.00,4,,319
2012-10-31,51,43,34,31,27,25,70,56,42,29.91,29.85,29.79,10,10,10,21,10,30,0.00,1,,299